^^
Paulen-Weather Station Historical Data
Daily Summary for January 15, 2020 Units:  Metric    English   Both
Daily Weekly Monthly Yearly Custom
  High: Low: Average:
Temperature: 10 °C 7 °C 8.2 °C
Dew Point: 9 °C 5 °C 6 °C
Humidity: 93% 80% 87%
Wind Speed: 57km/h 11km/h 28.1km/h
Wind Gust: 64km/h - -
Wind- - SW
Pressure: 998.85 hPa 981.31 hPa -
Precipitation: 0.2 mm    
Historical Graphs
 
 
Tabular Data for January 15, 2020
Time Temperature Dew Point Pressure Wind Wind Speed Wind Gust Humidity Rainfall Rate (Hourly) solar
00:04 10 °C 9 °C 981.31 hPa NNE 57 km/h 56 km/h 93% 0.2 mm 0 W/m2
00:09 10 °C 9 °C 981.48 hPa NNE 52 km/h 61 km/h 93% 0.2 mm 0 W/m2
00:14 10 °C 9 °C 981.61 hPa NNE 50 km/h 60 km/h 93% 0.2 mm 0 W/m2
00:19 10 °C 9 °C 981.65 hPa N 48 km/h 53 km/h 93% 0.2 mm 0 W/m2
00:24 10 °C 9 °C 981.71 hPa NNE 45 km/h 50 km/h 93% 0.2 mm 0 W/m2
00:29 10 °C 9 °C 981.85 hPa NW 55 km/h 56 km/h 93% 0.2 mm 0 W/m2
00:34 10 °C 9 °C 981.88 hPa WNW 50 km/h 63 km/h 93% 0.2 mm 0 W/m2
00:39 10 °C 9 °C 981.88 hPa N 53 km/h 58 km/h 92% 0.2 mm 0 W/m2
00:44 10 °C 9 °C 982.02 hPa N 51 km/h 58 km/h 92% 0.2 mm 0 W/m2
00:49 10 °C 9 °C 982.02 hPa NNE 47 km/h 53 km/h 92% 0.2 mm 0 W/m2
00:54 10 °C 9 °C 981.98 hPa N 52 km/h 56 km/h 91% 0.2 mm 0 W/m2
00:59 10 °C 9 °C 982.05 hPa NNE 50 km/h 60 km/h 91% 0.2 mm 0 W/m2
01:04 10 °C 9 °C 982.19 hPa NNE 48 km/h 56 km/h 91% 0.2 mm 0 W/m2
01:09 10 °C 9 °C 982.19 hPa NNE 46 km/h 58 km/h 90% 0.2 mm 0 W/m2
01:14 10 °C 9 °C 982.32 hPa NNE 47 km/h 56 km/h 90% 0 mm 0 W/m2
01:19 10 °C 8 °C 982.43 hPa N 47 km/h 64 km/h 90% 0 mm 0 W/m2
01:24 10 °C 8 °C 982.39 hPa NNW 44 km/h 61 km/h 90% 0 mm 0 W/m2
01:29 10 °C 8 °C 982.39 hPa NNE 50 km/h 48 km/h 90% 0 mm 0 W/m2
01:34 10 °C 8 °C 982.63 hPa N 52 km/h 60 km/h 90% 0 mm 0 W/m2
01:39 10 °C 8 °C 982.87 hPa N 41 km/h 60 km/h 90% 0 mm 0 W/m2
01:44 10 °C 8 °C 982.93 hPa N 43 km/h 48 km/h 89% 0 mm 0 W/m2
01:49 9 °C 8 °C 983.2 hPa NNW 39 km/h 58 km/h 89% 0 mm 0 W/m2
01:54 9 °C 8 °C 983.34 hPa N 33 km/h 42 km/h 89% 0 mm 0 W/m2
01:59 9 °C 8 °C 983.61 hPa N 33 km/h 42 km/h 90% 0 mm 0 W/m2
02:04 9 °C 7 °C 983.95 hPa NNW 35 km/h 48 km/h 90% 0 mm 0 W/m2
02:09 9 °C 7 °C 984.08 hPa NW 33 km/h 40 km/h 90% 0 mm 0 W/m2
02:14 9 °C 7 °C 984.15 hPa NW 34 km/h 40 km/h 90% 0 mm 0 W/m2
02:19 9 °C 7 °C 984.36 hPa NNW 30 km/h 42 km/h 90% 0 mm 0 W/m2
02:24 9 °C 7 °C 984.66 hPa NNW 29 km/h 39 km/h 90% 0 mm 0 W/m2
02:29 9 °C 7 °C 984.69 hPa NNW 29 km/h 39 km/h 90% 0 mm 0 W/m2
02:34 9 °C 7 °C 985 hPa WNW 27 km/h 34 km/h 89% 0 mm 0 W/m2
02:39 9 °C 7 °C 985.34 hPa NW 33 km/h 34 km/h 89% 0 mm 0 W/m2
02:44 8 °C 7 °C 985.51 hPa NW 30 km/h 43 km/h 90% 0 mm 0 W/m2
02:49 8 °C 7 °C 985.64 hPa NW 28 km/h 37 km/h 90% 0 mm 0 W/m2
02:54 8 °C 7 °C 985.74 hPa NNW 28 km/h 39 km/h 90% 0 mm 0 W/m2
02:59 8 °C 7 °C 985.88 hPa NW 30 km/h 29 km/h 90% 0 mm 0 W/m2
03:04 8 °C 7 °C 986.01 hPa NNW 29 km/h 37 km/h 90% 0 mm 0 W/m2
03:09 8 °C 7 °C 986.18 hPa NNW 28 km/h 37 km/h 90% 0 mm 0 W/m2
03:14 8 °C 7 °C 986.39 hPa NNW 35 km/h 29 km/h 90% 0 mm 0 W/m2
03:19 8 °C 6 °C 986.66 hPa WNW 36 km/h 42 km/h 90% 0 mm 0 W/m2
03:24 8 °C 6 °C 986.69 hPa WNW 29 km/h 42 km/h 89% 0 mm 0 W/m2
03:29 8 °C 6 °C 986.79 hPa W 26 km/h 32 km/h 90% 0 mm 0 W/m2
03:34 8 °C 6 °C 986.93 hPa NNW 27 km/h 35 km/h 91% 0 mm 0 W/m2
03:39 8 °C 6 °C 987 hPa NW 25 km/h 35 km/h 92% 0 mm 0 W/m2
03:44 7 °C 6 °C 987.13 hPa NW 29 km/h 29 km/h 93% 0 mm 0 W/m2
03:49 7 °C 6 °C 987.34 hPa WNW 24 km/h 35 km/h 93% 0 mm 0 W/m2
03:54 7 °C 7 °C 987.37 hPa NW 29 km/h 31 km/h 93% 0 mm 0 W/m2
03:59 8 °C 6 °C 987.37 hPa NW 31 km/h 35 km/h 92% 0 mm 0 W/m2
04:04 8 °C 6 °C 987.54 hPa WNW 36 km/h 48 km/h 90% 0 mm 0 W/m2
04:09 8 °C 6 °C 987.74 hPa NNW 38 km/h 48 km/h 89% 0 mm 0 W/m2
04:14 8 °C 6 °C 987.84 hPa WNW 28 km/h 47 km/h 89% 0 mm 0 W/m2
04:19 8 °C 6 °C 987.84 hPa WNW 21 km/h 35 km/h 90% 0 mm 0 W/m2
04:24 8 °C 6 °C 987.95 hPa W 18 km/h 26 km/h 91% 0 mm 0 W/m2
04:29 8 °C 6 °C 988.01 hPa NW 22 km/h 24 km/h 91% 0 mm 0 W/m2
04:34 8 °C 6 °C 988.08 hPa WNW 26 km/h 26 km/h 91% 0 mm 0 W/m2
04:39 8 °C 6 °C 988.39 hPa WNW 28 km/h 34 km/h 91% 0 mm 0 W/m2
04:44 8 °C 6 °C 988.62 hPa NW 30 km/h 32 km/h 90% 0 mm 0 W/m2
04:49 8 °C 6 °C 988.66 hPa NNW 29 km/h 40 km/h 90% 0 mm 0 W/m2
04:54 8 °C 6 °C 988.66 hPa WNW 28 km/h 32 km/h 90% 0 mm 0 W/m2
04:59 8 °C 6 °C 988.79 hPa NNW 29 km/h 34 km/h 90% 0 mm 0 W/m2
05:04 8 °C 6 °C 988.93 hPa NW 29 km/h 32 km/h 89% 0 mm 0 W/m2
05:09 8 °C 6 °C 988.93 hPa NW 28 km/h 35 km/h 89% 0 mm 0 W/m2
05:14 8 °C 6 °C 988.96 hPa NNW 29 km/h 29 km/h 89% 0 mm 0 W/m2
05:19 8 °C 6 °C 988.99 hPa NNW 23 km/h 35 km/h 89% 0 mm 0 W/m2
05:24 8 °C 6 °C 989.06 hPa NNW 26 km/h 27 km/h 88% 0 mm 0 W/m2
05:29 8 °C 6 °C 989.3 hPa W 20 km/h 29 km/h 88% 0 mm 0 W/m2
05:34 8 °C 6 °C 989.3 hPa NW 28 km/h 32 km/h 87% 0 mm 0 W/m2
05:39 8 °C 6 °C 989.37 hPa WNW 21 km/h 32 km/h 88% 0 mm 0 W/m2
05:44 8 °C 6 °C 989.37 hPa NNW 27 km/h 24 km/h 87% 0 mm 0 W/m2
05:49 8 °C 6 °C 989.6 hPa NW 26 km/h 34 km/h 87% 0 mm 0 W/m2
05:54 8 °C 6 °C 989.64 hPa NW 22 km/h 32 km/h 86% 0 mm 0 W/m2
05:59 8 °C 6 °C 989.77 hPa NW 21 km/h 27 km/h 86% 0 mm 0 W/m2
06:04 8 °C 6 °C 989.81 hPa NW 22 km/h 32 km/h 87% 0 mm 0 W/m2
06:09 8 °C 6 °C 989.91 hPa WNW 22 km/h 27 km/h 88% 0 mm 0 W/m2
06:14 8 °C 6 °C 989.94 hPa NW 22 km/h 29 km/h 87% 0 mm 0 W/m2
06:19 8 °C 6 °C 990.38 hPa NNW 28 km/h 29 km/h 86% 0 mm 0 W/m2
06:24 8 °C 5 °C 990.38 hPa NNW 26 km/h 34 km/h 86% 0 mm 0 W/m2
06:29 8 °C 5 °C 990.38 hPa NW 27 km/h 32 km/h 85% 0 mm 0 W/m2
06:34 8 °C 5 °C 990.52 hPa NW 20 km/h 37 km/h 85% 0 mm 0 W/m2
06:39 8 °C 5 °C 990.72 hPa NW 26 km/h 26 km/h 85% 0 mm 0 W/m2
06:44 8 °C 5 °C 990.79 hPa NNW 19 km/h 35 km/h 85% 0 mm 0 W/m2
06:49 8 °C 6 °C 990.76 hPa NNW 20 km/h 26 km/h 86% 0 mm 0 W/m2
06:54 8 °C 6 °C 991.06 hPa NNW 23 km/h 27 km/h 86% 0 mm 0 W/m2
06:59 8 °C 6 °C 991.13 hPa WNW 21 km/h 27 km/h 86% 0 mm 0 W/m2
07:04 8 °C 6 °C 991.06 hPa NW 18 km/h 29 km/h 86% 0 mm 0 W/m2
07:09 8 °C 6 °C 991.26 hPa WNW 14 km/h 24 km/h 87% 0 mm 0 W/m2
07:14 8 °C 6 °C 991.26 hPa WNW 11 km/h 16 km/h 88% 0 mm 0 W/m2
07:19 8 °C 6 °C 991.26 hPa NW 22 km/h 20 km/h 87% 0 mm 0 W/m2
07:24 8 °C 6 °C 991.26 hPa WNW 24 km/h 34 km/h 86% 0 mm 0 W/m2
07:29 8 °C 5 °C 991.3 hPa NNW 19 km/h 26 km/h 86% 0 mm 0 W/m2
07:34 8 °C 5 °C 991.23 hPa NNW 26 km/h 24 km/h 85% 0 mm 0 W/m2
07:39 8 °C 5 °C 991.37 hPa NW 19 km/h 34 km/h 85% 0 mm 0 W/m2
07:44 8 °C 5 °C 991.7 hPa W 14 km/h 26 km/h 86% 0 mm 0 W/m2
07:49 8 °C 5 °C 991.84 hPa NW 19 km/h 21 km/h 86% 0 mm 0 W/m2
07:54 8 °C 5 °C 992.01 hPa NW 22 km/h 26 km/h 86% 0 mm 0 W/m2
07:59 8 °C 5 °C 992.21 hPa NW 19 km/h 27 km/h 86% 0 mm 0 W/m2
08:04 8 °C 5 °C 992.28 hPa WNW 20 km/h 23 km/h 86% 0 mm 0 W/m2
08:09 8 °C 5 °C 992.28 hPa NW 23 km/h 27 km/h 86% 0 mm 0 W/m2
08:14 8 °C 5 °C 992.31 hPa WNW 25 km/h 34 km/h 86% 0 mm 0 W/m2
08:19 8 °C 6 °C 992.38 hPa NNW 21 km/h 34 km/h 87% 0 mm 0 W/m2
08:24 8 °C 6 °C 992.42 hPa WSW 21 km/h 27 km/h 87% 0 mm 0 W/m2
08:29 8 °C 6 °C 992.55 hPa N 31 km/h 32 km/h 86% 0 mm 0 W/m2
08:34 8 °C 6 °C 992.48 hPa NNW 30 km/h 32 km/h 86% 0 mm 0 W/m2
08:39 8 °C 5 °C 992.62 hPa N 28 km/h 35 km/h 84% 0 mm 0 W/m2
08:44 8 °C 5 °C 992.79 hPa NW 24 km/h 32 km/h 84% 0 mm 0 W/m2
08:49 8 °C 5 °C 992.86 hPa NW 20 km/h 32 km/h 84% 0 mm 0 W/m2
08:54 8 °C 6 °C 992.86 hPa W 18 km/h 23 km/h 86% 0 mm 0 W/m2
08:59 8 °C 5 °C 992.96 hPa WNW 22 km/h 21 km/h 85% 0 mm 0 W/m2
09:04 8 °C 5 °C 992.92 hPa NW 25 km/h 29 km/h 84% 0 mm 0 W/m2
09:09 8 °C 5 °C 993.09 hPa WNW 18 km/h 29 km/h 84% 0 mm 0 W/m2
09:14 8 °C 5 °C 993.16 hPa NNW 24 km/h 24 km/h 83% 0 mm 5 W/m2
09:19 8 °C 5 °C 993.3 hPa NNW 21 km/h 32 km/h 84% 0 mm 5 W/m2
09:24 8 °C 5 °C 993.43 hPa WNW 16 km/h 32 km/h 84% 0 mm 7 W/m2
09:29 8 °C 5 °C 993.53 hPa N 21 km/h 19 km/h 84% 0 mm 7 W/m2
09:34 8 °C 6 °C 993.6 hPa NW 22 km/h 27 km/h 85% 0 mm 12 W/m2
09:39 8 °C 6 °C 993.7 hPa N 29 km/h 32 km/h 86% 0 mm 16 W/m2
09:44 8 °C 6 °C 993.7 hPa WNW 23 km/h 35 km/h 87% 0 mm 16 W/m2
09:49 8 °C 6 °C 993.87 hPa N 30 km/h 32 km/h 86% 0 mm 16 W/m2
09:54 8 °C 6 °C 993.97 hPa NNE 27 km/h 37 km/h 86% 0 mm 12 W/m2
09:59 8 °C 6 °C 994.04 hPa N 26 km/h 39 km/h 86% 0 mm 14 W/m2
10:04 8 °C 6 °C 994.04 hPa N 25 km/h 32 km/h 86% 0 mm 18 W/m2
10:09 8 °C 6 °C 994.07 hPa NNW 29 km/h 26 km/h 86% 0 mm 16 W/m2
10:14 8 °C 6 °C 994.18 hPa N 21 km/h 37 km/h 86% 0 mm 21 W/m2
10:19 8 °C 6 °C 994.18 hPa NNE 23 km/h 24 km/h 87% 0 mm 28 W/m2
10:24 8 °C 6 °C 994.28 hPa N 29 km/h 32 km/h 86% 0 mm 40 W/m2
10:29 8 °C 6 °C 994.31 hPa NNE 34 km/h 35 km/h 86% 0 mm 49 W/m2
10:34 8 °C 6 °C 994.45 hPa NNE 33 km/h 43 km/h 84% 0 mm 54 W/m2
10:39 8 °C 5 °C 994.68 hPa N 28 km/h 37 km/h 83% 0 mm 54 W/m2
10:44 8 °C 5 °C 994.79 hPa N 20 km/h 34 km/h 83% 0 mm 44 W/m2
10:49 8 °C 6 °C 994.75 hPa N 24 km/h 26 km/h 85% 0 mm 111 W/m2
10:54 8 °C 6 °C 994.85 hPa N 36 km/h 32 km/h 85% 0 mm 114 W/m2
10:59 8 °C 6 °C 994.89 hPa N 38 km/h 47 km/h 84% 0 mm 84 W/m2
11:04 8 °C 5 °C 994.99 hPa NNW 32 km/h 47 km/h 83% 0 mm 62 W/m2
11:09 8 °C 5 °C 995.06 hPa NW 25 km/h 37 km/h 83% 0 mm 58 W/m2
11:14 8 °C 5 °C 995.06 hPa NW 18 km/h 32 km/h 84% 0 mm 84 W/m2
11:19 8 °C 6 °C 995.06 hPa N 24 km/h 23 km/h 84% 0 mm 62 W/m2
11:24 8 °C 6 °C 995.29 hPa N 29 km/h 32 km/h 85% 0 mm 63 W/m2
11:29 8 °C 5 °C 995.29 hPa N 34 km/h 32 km/h 83% 0 mm 58 W/m2
11:34 8 °C 5 °C 995.46 hPa N 25 km/h 37 km/h 83% 0 mm 58 W/m2
11:39 8 °C 5 °C 995.63 hPa N 26 km/h 31 km/h 83% 0 mm 49 W/m2
11:44 8 °C 5 °C 995.67 hPa N 30 km/h 32 km/h 82% 0 mm 70 W/m2
11:49 8 °C 5 °C 995.73 hPa N 25 km/h 35 km/h 81% 0 mm 77 W/m2
11:54 8 °C 5 °C 995.7 hPa N 28 km/h 32 km/h 81% 0 mm 77 W/m2
11:59 8 °C 5 °C 995.73 hPa NNE 30 km/h 34 km/h 82% 0 mm 54 W/m2
12:04 8 °C 5 °C 995.84 hPa NNW 27 km/h 34 km/h 82% 0 mm 44 W/m2
12:09 8 °C 5 °C 995.9 hPa NNW 26 km/h 34 km/h 83% 0 mm 58 W/m2
12:14 8 °C 5 °C 995.97 hPa N 32 km/h 34 km/h 82% 0 mm 81 W/m2
12:19 8 °C 5 °C 996.07 hPa N 31 km/h 42 km/h 82% 0 mm 107 W/m2
12:24 8 °C 5 °C 996.07 hPa WNW 19 km/h 35 km/h 82% 0 mm 125 W/m2
12:29 8 °C 5 °C 996.14 hPa WSW 23 km/h 23 km/h 82% 0 mm 125 W/m2
12:34 8 °C 5 °C 996.17 hPa NNW 24 km/h 27 km/h 82% 0 mm 160 W/m2
12:39 8 °C 5 °C 996.28 hPa NW 25 km/h 29 km/h 81% 0 mm 137 W/m2
12:44 8 °C 5 °C 996.41 hPa NNE 28 km/h 35 km/h 80% 0 mm 86 W/m2
12:49 8 °C 5 °C 996.41 hPa NNW 20 km/h 32 km/h 80% 0 mm 69 W/m2
12:54 8 °C 5 °C 996.44 hPa N 23 km/h 29 km/h 81% 0 mm 70 W/m2
12:59 8 °C 5 °C 996.48 hPa N 22 km/h 26 km/h 81% 0 mm 69 W/m2
13:04 8 °C 5 °C 996.51 hPa N 25 km/h 29 km/h 82% 0 mm 69 W/m2
13:09 8 °C 5 °C 996.58 hPa WNW 22 km/h 34 km/h 81% 0 mm 58 W/m2
13:14 8 °C 5 °C 996.68 hPa NNE 23 km/h 27 km/h 81% 0 mm 62 W/m2
13:19 8 °C 5 °C 996.78 hPa N 25 km/h 27 km/h 81% 0 mm 69 W/m2
13:24 8 °C 5 °C 996.82 hPa W 26 km/h 27 km/h 82% 0 mm 67 W/m2
13:29 8 °C 5 °C 996.75 hPa NW 23 km/h 29 km/h 83% 0 mm 63 W/m2
13:34 8 °C 5 °C 996.85 hPa NNW 25 km/h 32 km/h 84% 0 mm 63 W/m2
13:39 8 °C 5 °C 996.82 hPa N 22 km/h 32 km/h 84% 0 mm 63 W/m2
13:44 8 °C 5 °C 996.89 hPa N 23 km/h 26 km/h 84% 0 mm 62 W/m2
13:49 8 °C 5 °C 996.89 hPa SSW 23 km/h 29 km/h 84% 0 mm 56 W/m2
13:54 8 °C 5 °C 996.78 hPa N 20 km/h 24 km/h 84% 0 mm 58 W/m2
13:59 8 °C 5 °C 996.89 hPa WNW 20 km/h 23 km/h 84% 0 mm 54 W/m2
14:04 8 °C 5 °C 996.92 hPa NW 20 km/h 27 km/h 84% 0 mm 40 W/m2
14:09 8 °C 6 °C 996.92 hPa NW 20 km/h 24 km/h 85% 0 mm 40 W/m2
14:14 8 °C 6 °C 996.99 hPa N 22 km/h 26 km/h 85% 0 mm 35 W/m2
14:19 8 °C 6 °C 996.99 hPa N 24 km/h 27 km/h 86% 0 mm 44 W/m2
14:24 8 °C 5 °C 997.02 hPa N 29 km/h 27 km/h 84% 0 mm 44 W/m2
14:29 8 °C 5 °C 997.19 hPa NNW 22 km/h 35 km/h 83% 0 mm 39 W/m2
14:34 8 °C 5 °C 997.22 hPa NNW 26 km/h 24 km/h 83% 0 mm 40 W/m2
14:39 8 °C 5 °C 997.22 hPa N 29 km/h 35 km/h 83% 0 mm 37 W/m2
14:44 8 °C 5 °C 997.16 hPa N 25 km/h 29 km/h 83% 0 mm 32 W/m2
14:49 8 °C 5 °C 997.09 hPa NNW 26 km/h 32 km/h 83% 0 mm 28 W/m2
14:54 8 °C 5 °C 997.05 hPa NNW 21 km/h 29 km/h 83% 0 mm 28 W/m2
14:59 8 °C 5 °C 997.05 hPa N 26 km/h 29 km/h 83% 0 mm 26 W/m2
15:04 8 °C 5 °C 997.09 hPa NNW 20 km/h 32 km/h 83% 0 mm 18 W/m2
15:09 8 °C 5 °C 997.09 hPa N 20 km/h 21 km/h 84% 0 mm 23 W/m2
15:14 8 °C 5 °C 997.02 hPa NW 21 km/h 29 km/h 84% 0 mm 23 W/m2
15:19 8 °C 5 °C 997.02 hPa N 18 km/h 23 km/h 85% 0 mm 18 W/m2
15:24 8 °C 6 °C 997.09 hPa NNE 21 km/h 21 km/h 85% 0 mm 16 W/m2
15:29 8 °C 6 °C 997.09 hPa N 26 km/h 32 km/h 86% 0 mm 19 W/m2
15:34 8 °C 6 °C 997.16 hPa NNE 25 km/h 32 km/h 87% 0 mm 16 W/m2
15:39 8 °C 6 °C 997.26 hPa NNE 32 km/h 32 km/h 87% 0 mm 9 W/m2
15:44 8 °C 6 °C 997.33 hPa NNE 29 km/h 40 km/h 87% 0 mm 9 W/m2
15:49 8 °C 6 °C 997.43 hPa NNE 31 km/h 34 km/h 87% 0 mm 7 W/m2
15:54 8 °C 6 °C 997.6 hPa NNE 28 km/h 34 km/h 87% 0 mm 7 W/m2
15:59 8 °C 6 °C 997.6 hPa NNE 27 km/h 35 km/h 87% 0 mm 5 W/m2
16:04 8 °C 6 °C 997.53 hPa N 25 km/h 34 km/h 87% 0 mm 0 W/m2
16:09 8 °C 6 °C 997.49 hPa N 24 km/h 29 km/h 87% 0 mm 0 W/m2
16:14 8 °C 6 °C 997.46 hPa NNE 31 km/h 32 km/h 87% 0 mm 0 W/m2
16:19 8 °C 6 °C 997.53 hPa NNE 33 km/h 42 km/h 87% 0 mm 5 W/m2
16:24 8 °C 6 °C 997.56 hPa NNE 32 km/h 34 km/h 87% 0 mm 5 W/m2
16:29 8 °C 6 °C 997.66 hPa NNE 29 km/h 37 km/h 87% 0 mm 0 W/m2
16:34 8 °C 6 °C 997.83 hPa NNE 31 km/h 39 km/h 86% 0 mm 0 W/m2
16:39 8 °C 6 °C 997.83 hPa NNE 25 km/h 35 km/h 86% 0 mm 0 W/m2
16:44 8 °C 6 °C 998 hPa N 24 km/h 29 km/h 86% 0 mm 0 W/m2
16:49 8 °C 6 °C 998.07 hPa NNE 24 km/h 29 km/h 87% 0 mm 0 W/m2
16:54 8 °C 6 °C 998.04 hPa NW 26 km/h 27 km/h 88% 0 mm 0 W/m2
16:59 8 °C 6 °C 997.93 hPa NNW 29 km/h 27 km/h 88% 0 mm 0 W/m2
17:04 8 °C 6 °C 998 hPa N 27 km/h 35 km/h 88% 0 mm 0 W/m2
17:09 8 °C 6 °C 997.97 hPa NNE 31 km/h 32 km/h 88% 0 mm 0 W/m2
17:14 8 °C 6 °C 998.07 hPa NNE 33 km/h 34 km/h 87% 0 mm 0 W/m2
17:19 8 °C 6 °C 998.17 hPa NNE 30 km/h 43 km/h 87% 0 mm 0 W/m2
17:24 8 °C 6 °C 998.17 hPa NNE 26 km/h 34 km/h 87% 0 mm 0 W/m2
17:29 8 °C 6 °C 998.31 hPa NNE 27 km/h 29 km/h 87% 0 mm 0 W/m2
17:34 8 °C 6 °C 998.31 hPa NNE 29 km/h 32 km/h 86% 0 mm 0 W/m2
17:39 8 °C 6 °C 998.34 hPa N 28 km/h 32 km/h 86% 0 mm 0 W/m2
17:44 8 °C 6 °C 998.38 hPa NNE 31 km/h 32 km/h 86% 0 mm 0 W/m2
17:49 8 °C 6 °C 998.38 hPa NNE 24 km/h 35 km/h 86% 0 mm 0 W/m2
17:54 8 °C 6 °C 998.51 hPa NNE 22 km/h 32 km/h 87% 0 mm 0 W/m2
17:59 8 °C 6 °C 998.58 hPa NNE 32 km/h 26 km/h 87% 0 mm 0 W/m2
18:04 8 °C 6 °C 998.68 hPa NNE 30 km/h 40 km/h 87% 0 mm 0 W/m2
18:09 8 °C 6 °C 998.65 hPa NNE 32 km/h 35 km/h 86% 0 mm 0 W/m2
18:14 8 °C 6 °C 998.65 hPa NW 26 km/h 34 km/h 86% 0 mm 0 W/m2
18:19 8 °C 6 °C 998.75 hPa NNE 28 km/h 32 km/h 86% 0 mm 0 W/m2
18:24 8 °C 5 °C 998.85 hPa N 32 km/h 34 km/h 85% 0 mm 0 W/m2
Compliments of Weather Underground - 2 mb